Powrót do katalogu

FENGYUN 1C DEB

LostPO
NORAD 38110·DEBRIS·🇨🇳 China

Wystrzelony May 10, 1999 z Taiyuan Satellite Launch Center

Loading…

Następne Przeloty (najbliższe 24 godziny)

TLE

NieaktualneSource: Space-Track

Epoka: Aug 26, 2024, 19:01 UTC

1 38110U 99025EPF 24239.79254808  .00002904  00000-0  18479-2 0  9997
2 38110  98.1142 230.6930 0194782 197.7627 288.5840 13.95483087723042

Śledź FENGYUN 1C DEB w czasie rzeczywistym z AllMySat

Download on the App Store